Simultaneous Nadir Overpasses (SNOs) Predictions

Prediction of SNOs between FY3D and AQUA Satellite Orbit:

Table of predicted SNOs for the next 14.0 days since TLE Epoch: 4/14/2023
Index Date (FY3D) Time (FY3D) Lat,Lon (FY3D) SZA (FY3D ) Date (AQUA) Time (AQUA) Lat,Lon (AQUA) SZA (AQUA ) Distance(km) Time Diff (sec)
1 04/16/2023 00:54:54 78.33, 148.43 68.89 04/16/2023 00:55:12 78.32, 148.50 68.87 1.63 18
2 04/16/2023 01:45:26 -77.82, -41.50 111.78 04/16/2023 01:44:25 -77.82, -41.46 111.77 0.91 61
3 04/18/2023 14:40:35 -78.49, 121.07 111.81 04/18/2023 14:41:17 -78.48, 121.20 111.84 3.00 42
4 04/18/2023 15:31:08 77.97, -68.63 67.49 04/18/2023 15:30:30 77.97, -68.61 67.50 0.61 38
5 04/21/2023 04:26:16 78.61, 94.00 67.45 04/21/2023 04:27:20 78.60, 94.11 67.41 2.61 64
6 04/21/2023 05:16:49 -78.15, -95.96 113.18 04/21/2023 05:16:34 -78.14, -95.92 113.18 1.03 15
7 04/23/2023 19:02:28 78.24,-122.83 66.07 04/23/2023 19:02:34 78.23,-122.83 66.06 0.28 6
8 04/23/2023 19:53:00 -77.71, 47.26 114.62 04/23/2023 19:51:47 -77.72, 47.20 114.59 1.55 73
9 04/26/2023 08:48:07 -78.34,-149.78 114.65 04/26/2023 08:48:34 -78.34,-149.83 114.66 1.21 27



Historial Predications of SNOs between FY3D and AQUA
